Weather History for Saint Simons Island, GA

Change the Weather History Date:

Wednesday, February 13, 2013

  Actual Average Record
Temperature  
Mean Temperature 70 °F 54 °F  
Max Temperature 83 °F 63 °F 83 °F (2013)
Min Temperature 57 °F 45 °F 22 °F (1955)
Degree Days  
Heating Degree Days 0 11  
Month to date heating degree days 95 155  
Since 1 July heating degree days 770 1106  
Cooling Degree Days 5 0  
Month to date cooling degree days 6 0  
Year to date cooling degree days 18 3  
Growing Degree Days 23 (Base 50)    
Moisture  
Dew Point 59 °F    
Average Humidity 59    
Maximum Humidity 90    
Minimum Humidity 28    
Precipitation  
Precipitation T in 0.12 in 1.78 in (1983)
Month to date precipitation 0.13 1.53  
Year to date precipitation 0.47 4.75  
Snow  
Snow 0.00 in - 1.50 in (1958)
Month to date snowfall 0.0  
Since 1 July snowfall 0.0  
Snow Depth 0.00 in    
Sea Level Pressure  
Sea Level Pressure 29.82 in    
Wind  
Wind Speed 11 mph (SW)    
Max Wind Speed 22 mph    
Max Gust Speed 33 mph    
Visibility 10 miles    
Events      
T = Trace of Precipitation, MM = Missing Value Source: NWS Daily Summary

Daily Weather History Graph

Daily Weather History Graph

Search for Another Location

Airport:

Trip Planner

Search our weather history database for the weather conditions in past years. The results will help you decide how hot, cold, wet, or windy it might be!

Date:

Astronomy

Feb. 13, 2013 Rise Set
Actual Time 7:08 AM EST 6:11 PM EST
Civil Twilight 6:43 AM EST 6:36 PM EST
Nautical Twilight 6:15 AM EST 7:04 PM EST
Astronomical Twilight 5:46 AM EST 7:33 PM EST
Moon 8:54 AM EST (2/13) 9:52 PM EST (2/13)
Length of Visible Light 11h 52m
Length of Day
11h 03m
Waxing Crescent, 13% of the Moon is Illuminated
Feb 13
Waxing Crescent
Feb 17
First Quarter
Feb 25
Full
Mar 4
Last Quarter
Mar 11
New

Hourly Weather History & Observations

Time (EST) Temp. Heat Index Dew Point Humidity Pressure Visibility Wind Dir Wind Speed Gust Speed Precip Events Conditions
12:53 AM 68.0 °F - 63.0 °F 84% 29.83 in 10.0 mi SSW 8.1 mph - N/A   Overcast
1:49 AM 69.8 °F - 64.4 °F 83% 29.82 in 10.0 mi SSW 11.5 mph 20.7 mph N/A   Overcast
1:53 AM 70.0 °F - 64.0 °F 81% 29.81 in 10.0 mi SSW 13.8 mph 23.0 mph N/A   Overcast
2:53 AM 70.0 °F - 64.9 °F 84% 29.80 in 10.0 mi SSW 10.4 mph 21.9 mph N/A   Overcast
3:53 AM 70.0 °F - 64.9 °F 84% 29.78 in 10.0 mi SSW 12.7 mph 20.7 mph N/A   Mostly Cloudy
4:30 AM 69.8 °F - 66.2 °F 88% 29.78 in 10.0 mi SSW 10.4 mph - N/A   Overcast
4:53 AM 70.0 °F - 66.0 °F 87% 29.78 in 10.0 mi SSW 11.5 mph 18.4 mph N/A   Overcast
5:35 AM 69.8 °F - 66.2 °F 88% 29.77 in 10.0 mi SSW 10.4 mph - N/A   Mostly Cloudy
5:53 AM 70.0 °F - 66.0 °F 87% 29.78 in 10.0 mi SSW 9.2 mph - N/A   Scattered Clouds
6:30 AM 69.8 °F - 66.2 °F 88% 29.78 in 10.0 mi SSW 4.6 mph - N/A   Overcast
6:53 AM 70.0 °F - 66.0 °F 87% 29.79 in 10.0 mi SSW 5.8 mph - N/A   Overcast
7:00 AM 69.8 °F - 66.2 °F 88% 29.80 in 10.0 mi SW 5.8 mph - N/A   Overcast
7:08 AM 69.8 °F - 66.2 °F 88% 29.80 in 10.0 mi SW 5.8 mph - N/A   Mostly Cloudy
7:15 AM 69.8 °F - 66.2 °F 88% 29.80 in 10.0 mi SW 8.1 mph - N/A   Mostly Cloudy
7:33 AM 69.8 °F - 66.2 °F 88% 29.81 in 10.0 mi SW 4.6 mph - N/A   Overcast
7:53 AM 70.0 °F - 66.9 °F 90% 29.82 in 10.0 mi SW 8.1 mph - N/A   Overcast
8:53 AM 75.0 °F - 68.0 °F 79% 29.83 in 10.0 mi SW 12.7 mph - 0.00 in   Scattered Clouds
9:22 AM 75.2 °F - 68.0 °F 78% 29.84 in 10.0 mi SW 10.4 mph - N/A   Mostly Cloudy
9:53 AM 75.0 °F - 66.9 °F 76% 29.83 in 10.0 mi SW 10.4 mph - N/A   Overcast
10:15 AM 75.2 °F - 68.0 °F 78% 29.83 in 10.0 mi SW 10.4 mph 19.6 mph N/A   Overcast
10:53 AM 79.0 °F - 66.9 °F 66% 29.83 in 10.0 mi WSW 12.7 mph - N/A   Partly Cloudy
11:53 AM 80.1 °F 81.9 °F 64.9 °F 60% 29.81 in 10.0 mi WSW 10.4 mph 18.4 mph N/A   Scattered Clouds
12:53 PM 82.0 °F 83.4 °F 64.0 °F 54% 29.79 in 10.0 mi WSW 13.8 mph - N/A   Partly Cloudy
1:53 PM 82.0 °F 81.6 °F 55.9 °F 41% 29.77 in 10.0 mi West 13.8 mph 20.7 mph N/A   Scattered Clouds
2:53 PM 81.0 °F - 50.0 °F 34% 29.75 in 10.0 mi WSW 12.7 mph 19.6 mph N/A   Partly Cloudy
3:53 PM 79.0 °F - 43.0 °F 28% 29.78 in 10.0 mi WNW 17.3 mph 24.2 mph N/A   Overcast
4:53 PM 75.0 °F - 42.1 °F 31% 29.81 in 10.0 mi West 12.7 mph 23.0 mph N/A   Overcast
5:53 PM 72.0 °F - 42.1 °F 34% 29.85 in 10.0 mi West 12.7 mph 24.2 mph N/A   Overcast
6:53 PM 70.0 °F - 42.1 °F 36% 29.87 in 10.0 mi West 10.4 mph - N/A   Overcast
7:53 PM 69.1 °F - 44.1 °F 40% 29.86 in 10.0 mi West 9.2 mph 20.7 mph N/A   Overcast
8:53 PM 68.0 °F - 44.1 °F 42% 29.87 in 10.0 mi West 12.7 mph 29.9 mph N/A   Overcast
9:53 PM 64.9 °F - 46.9 °F 52% 29.89 in 10.0 mi West 5.8 mph - 0.00 in   Overcast
10:53 PM 64.0 °F - 46.0 °F 52% 29.92 in 10.0 mi WNW 10.4 mph 18.4 mph N/A   Overcast
11:53 PM 57.0 °F - 48.9 °F 74% 29.94 in 10.0 mi NW 9.2 mph 17.3 mph N/A   Clear